Flag for U.S.A. Weather past 2 weeks in Sedona, Arizona, U.S.A.

Now
93 °F

Scattered clouds.


Feels Like: 90 °F
Forecast: 77 / 94 °F
Wind: 9 mph from Southwest

Location: Sedona Airport

Current Time: Jul 24, 2014 at 11:52:17 AM

Latest Report: Jul 24, 2014 at 11:15 AM


Visibility: 10 mi

Pressure: 30.19 "Hg

Humidity: 24%

Dew point: 52 °F

Location of SedonaLocation

Historic Weather in Sedona — Graph

°F

Sedona temperature yesterday

Maximum temperature yesterday: 99 °F (at 12:55 PM)
Minimum temperature yesterday: 77 °F (at 3:15 AM)
Average temperature yesterday: 88 °F

Past Weeks' High & Low Weather Summary

 TemperatureHumidityPressure
High99 °F (Jul 12, 2:35 PM)78% (Jul 14, 3:15 AM)30.29 "Hg (Jul 14, 3:15 AM)
Low68 °F (Jul 10, 5:15 AM)12% (Jul 18, 1:15 PM)30.02 "Hg (Jul 17, 5:15 PM)
Average80 °F35%30.16 "Hg
* Reported Jul 9 10:15 AM — Jul 24 10:35 AM, Sedona, Weather by CustomWeather, © 2014

Note: Actual official high and low records may vary slightly from our data, if they occured in-between our weather recording intervals... More about our weather records

Advertising

Sedona weather history for previous 24 hours

 ConditionsComfort  
Time TempWeatherWind HumidityBarometerVisibility
10:35 AM
Jul 24
95 °FScattered clouds.7 mph23%30.21 "Hg10 mi
10:15 AM90 °FScattered clouds.5 mph27%30.22 "Hg10 mi
9:55 AM88 °FScattered clouds.No wind31%30.22 "Hg10 mi
9:35 AM86 °FScattered clouds.5 mph33%30.22 "Hg10 mi
9:15 AM82 °FScattered clouds.5 mph40%30.23 "Hg10 mi
8:55 AM77 °FScattered clouds.8 mph54%30.22 "Hg10 mi
8:35 AM75 °FScattered clouds.13 mph61%30.23 "Hg10 mi
8:15 AM73 °FScattered clouds.12 mph65%30.22 "Hg10 mi
7:55 AM73 °FLight rain. Cloudy.12 mph65%30.22 "Hg5 mi
7:15 AM79 °FLight rain. More clouds than sun.7 mph42%30.21 "Hg10 mi
6:35 AM77 °FLight rain. More clouds than sun.5 mph47%30.21 "Hg10 mi
6:15 AM79 °FOvercast.5 mph42%30.20 "Hg10 mi
5:55 AM79 °FOvercast.No wind42%30.20 "Hg10 mi
5:35 AM79 °FOvercast.3 mph42%30.20 "Hg10 mi
5:15 AM79 °FOvercast.6 mph42%30.19 "Hg10 mi
4:55 AM79 °FOvercast.6 mph42%30.19 "Hg10 mi
4:35 AM79 °FOvercast.6 mph42%30.19 "Hg10 mi
4:15 AM79 °FPassing clouds.No wind42%30.19 "Hg10 mi
3:55 AM79 °FPassing clouds.No wind42%30.19 "Hg10 mi
3:35 AM79 °FPassing clouds.No wind42%30.19 "Hg10 mi
3:15 AM79 °FMostly cloudy.3 mph39%30.19 "Hg10 mi
2:55 AM79 °FPassing clouds.3 mph39%30.20 "Hg10 mi
2:35 AM81 °FOvercast.No wind37%30.20 "Hg10 mi
2:15 AM81 °FOvercast.No wind37%30.20 "Hg10 mi
1:55 AM81 °FPassing clouds.3 mph37%30.20 "Hg10 mi
1:35 AM81 °FPassing clouds.No wind37%30.20 "Hg10 mi
1:15 AM81 °FOvercast.No wind37%30.21 "Hg10 mi
12:55 AM81 °FPassing clouds.No wind39%30.21 "Hg10 mi
12:35 AM81 °FOvercast.5 mph39%30.21 "Hg10 mi
12:15 AM81 °FPassing clouds.6 mph39%30.21 "Hg10 mi
11:55 PM
Jul 23
81 °FPassing clouds.6 mph39%30.21 "Hg10 mi
11:35 PM81 °FPassing clouds.No wind37%30.22 "Hg10 mi
11:15 PM81 °FPassing clouds.3 mph37%30.21 "Hg10 mi
10:35 PM82 °FPassing clouds.7 mph35%30.22 "Hg10 mi
10:15 PM82 °FOvercast.8 mph35%30.21 "Hg10 mi
9:55 PM82 °FPassing clouds.17 mph35%30.21 "Hg10 mi
9:35 PM82 °FOvercast.16 mph35%30.20 "Hg10 mi
9:15 PM84 °FPassing clouds.16 mph31%30.19 "Hg10 mi
8:55 PM84 °FPassing clouds.14 mph31%30.18 "Hg10 mi
8:35 PM86 °FPassing clouds.16 mph29%30.17 "Hg10 mi
8:15 PM88 °FPassing clouds.22 mph25%30.15 "Hg10 mi
7:55 PM88 °FPassing clouds.14 mph25%30.15 "Hg10 mi
7:35 PM90 °FScattered clouds.16 mph24%30.15 "Hg10 mi
7:15 PM90 °FScattered clouds.13 mph22%30.15 "Hg10 mi
6:55 PM91 °FScattered clouds.10 mph20%30.13 "Hg10 mi
6:35 PM91 °FSunny.No wind18%30.13 "Hg10 mi
5:55 PM91 °FSunny.No wind20%30.13 "Hg10 mi
5:35 PM95 °FSunny.5 mph18%30.13 "Hg10 mi
5:15 PM95 °FThundershowers. Sunny.5 mph18%30.13 "Hg10 mi
4:55 PM95 °FSunny.3 mph18%30.13 "Hg10 mi
4:35 PM95 °FSunny.3 mph18%30.14 "Hg10 mi
4:15 PM93 °FSunny.No wind20%30.15 "Hg10 mi
3:55 PM91 °FScattered clouds.8 mph21%30.16 "Hg10 mi
3:35 PM90 °FCloudy.5 mph21%30.17 "Hg10 mi
3:15 PM90 °FMore clouds than sun.21 mph22%30.18 "Hg10 mi
2:55 PM90 °FPartly sunny.29 mph21%30.17 "Hg10 mi
2:35 PM91 °FScattered clouds.23 mph23%30.17 "Hg10 mi
2:15 PM95 °FPartly sunny.28 mph19%30.17 "Hg10 mi
1:55 PM97 °FScattered clouds.3 mph16%30.18 "Hg10 mi
1:35 PM97 °FSunny.3 mph16%30.18 "Hg10 mi
1:15 PM99 °FSunny.8 mph15%30.19 "Hg10 mi
12:55 PM99 °FSunny.7 mph15%30.20 "Hg10 mi
12:15 PM95 °FSunny.3 mph18%30.22 "Hg10 mi
11:55 AM97 °FSunny.3 mph16%30.23 "Hg10 mi
11:15 AM95 °FSunny.7 mph18%30.24 "Hg10 mi
Weather by CustomWeather, © 2014

See weather overviewHow to use our weather pages